Location: Coffee Ditch
(40.9640°N, 122.7500°W)
Time: 07:22:28
(UTC+00:00)

CZ-3 R/B - Pass Details

Date: 08 September 2024
Orbit: 506 x 10057 km, 28.3° (Epoch: 05 October)

Event Time Altitude Azimuth Distance (km) Brightness Sun altitude
Exits shadow 13:03:58 - 243° (WSW) 8,151 5.6 -8.5°
Reaches altitude 10° 13:06:37 10° 241° (WSW) 7,368 5.4 -8.0°
Maximum altitude 13:22:44 35° 184° (S) 2,504 3.5 -5.0°
Drops below altitude 10° 13:28:41 10° 119° (ESE) 2,740 4.7 -3.9°
Sets 13:30:38 0° 108° (ESE) 3,321 5.5 -3.6°
